星链-32908 (STARLINK-32908)

导读

STARLINK-32908是美国太空探索技术公司(SpaceX)于2025年2月23日发射的星链(Starlink)系列卫星,属于 SpaceX 打造的全球低轨卫星互联网星座组网的一部分,旨在为全球偏远地区、海洋、航空等场景提供高速宽带互联网接入服务。作为星链扩容组网的组成部分,它将进一步增强星链网络的覆盖密度与通信容量,提升服务稳定性和数据吞吐能力,推动星链向千兆级速度、直接手机接入的下一代网络演进。

Basic Information
目录编号:
63084
目录名称:
STARLINK-32908
国际标识:
2025-037H
轨道中心:
EARTH
卫星名称:
星链-32908
卫星全名:
星链-32908 (STARLINK-32908)
卫星状态:
在轨 (已飞行559 天)
发射日期:
2025-02-23 UTC
国别 :
美国 (US)
星等 :
--
Orbit Information
数据来源 国际轨道数据
星历时间: 2026-09-05T06:00:02+0800
10小时前
查看轨道信息
半长轴: 6871.793km
偏心率: 0.0003187
轨道倾角: 70.001°
近地点辐角 268.732°
升交点赤经 262.181°
平近点角 248.512°
近地点: 491.465km
远地点: 495.847km
周期: 94.485分钟
每日圈数: 15.240446
Detailed Information
固有亮度:
5
最大亮度:
2.5
卫星平台:
Starlink V1.0
覆盖范围:
全球
运营商:
太空探索技术公司
运营商所在国:
美国
制造商(研发单位):
太空探索技术公司
制造商所在国:
美国
使用方式:
暂无
Satellite Introduction
Starlink 计划是 SpaceX 推出的全球卫星互联网项目,通过发射低轨道卫星,为全球尤其是偏远地区提供高速、低延迟的互联网服务。自 2019 年起,Starlink 已部署数千颗卫星,旨在缩小全球数字鸿沟,推动互联网普及。该项目还为军事、航空等行业提供通信支持,带来广泛经济效益。
2D Orbit Map
3D Orbit Map
Orbit Altitude Analysis Chart
Orbit Inclination Analysis Chart
Orbit Comprehensive Analysis Chart
View Comprehensive Chart
Conjunction Data List
Event ID Objects TCA Miss Dist (km) Collision Risk Probability Collision Risk Index (CRI) Action
CDM_260906-131305-823706-308421
2026-09-06T
13:13:31+0000
0.631 km
远距离
8.348441E-5 中风险 0.73
CDM_260907-044806-188806-308421
2026-09-07T
04:48:37+0000
0.874 km
远距离
3.405834E-5 中风险 0.66
CDM_260905-230306-308406-356221
2026-09-05T
23:03:41+0000
1.176 km
极远距离
1.011356E-5 中风险 0.55
CDM_260831-090306-308406-869221
OBJECT B (68692)
2026-08-31T
09:03:18+0000
1.187 km
极远距离
8.537409E-6 低风险 0.54
CDM_260906-133505-761806-308421
2026-09-06T
13:35:06+0000
1.385 km
极远距离
7.160546E-6 低风险 0.52
CDM_260905-195505-824606-308421
2026-09-05T
19:55:35+0000
1.520 km
极远距离
4.659881E-6 低风险 0.48
CDM_260905-175205-969006-308421
2026-09-05T
17:52:22+0000
1.617 km
极远距离
4.626033E-6 低风险 0.48
CDM_260907-062606-308406-994821
2026-09-07T
06:26:49+0000
1.880 km
极远距离
3.043634E-6 低风险 0.45
CDM_260906-100605-534906-308421
2026-09-06T
10:06:02+0000
1.833 km
极远距离
2.862434E-6 低风险 0.44
CDM_260906-181705-761806-308421
2026-09-06T
18:17:41+0000
2.139 km
极远距离
2.028578E-6 低风险 0.41